www.pogodaiklimat.ru

Погода и климат >> Архив погоды >> Австралия >> Западная Австралия >> Маунт Магнет


ПОГОДА в Маунт Магнет

  • Прогноз погоды в Маунт Магнет
  • Монитор погоды в Маунт Магнет

АРХИВ ПОГОДЫ в Маунт Магнет

Время (UTC), дата Ветер
(напр.,м/с)
 
Видим.   Явления Облачность Т
(С)
Тd
(С)
f
(%)
Тe
(С)
Тes
(С)
Комфортность P
(гПа)
Po
(гПа)
Тmin
(С)
Tmax
(С)
R
(мм)
R24
(мм)
S
(см)
07 12.02 ЮЗ 6 н/о н/о +36.7 -6.7 6 +32 +32 жарко 1009.3 964.3
09 12.02 Ю 8 н/о н/о +36.9 -4.5 7 +33 +33 жарко 1008.7 963.8
10 12.02 ЮЗ 6 н/о н/о +36.2 -3.3 8 +32 +32 жарко 1009.1 964.1
12 12.02 Ю 4 н/о н/о +33.2 -2.5 10 +29 +29 жарко 1010.2 965.2
13 12.02 Ю 3 н/о н/о +31.2 -2.7 11 +28 +28 жарко 1011.0 966.0 +39.3
15 12.02 Ю 4 н/о н/о +29.5 +5.6 22 +28 +28 жарко 1011.4 966.3
16 12.02 Ю 4 н/о н/о +28.5 +7.1 26 +28 +28 жарко 1011.1 966.1
18 12.02 Ю 3 н/о н/о +25.2 +7.3 32 +25 +25 комфорт 1010.8 965.8
19 12.02 ЮЗ 2 н/о н/о +24.4 +7.5 34 +25 +25 комфорт 1010.7 965.7
21 12.02 В 4 н/о н/о +24.3 +6.1 31 +24 +24 комфорт 1010.8 965.8
22 12.02 В 3 н/о н/о +24.4 +6.6 32 +24 +24 комфорт 1011.5 966.4
00 13.02 В 6 н/о н/о +28.6 +6.1 24 +27 +27 жарко 1012.3 967.2
01 13.02 СВ 6 н/о н/о +30.5 +5.7 21 +29 +29 жарко 1012.4 967.3 +23.5
03 13.02 С 4 н/о н/о +35.6 +3.0 13 +32 +32 жарко 1011.7 966.6
04 13.02 ЮЗ 3 н/о н/о +36.3 -0.2 10 +33 +33 жарко 1011.1 966.1
06 13.02 ЮЗ 4 н/о н/о +39.3 +0.6 9 +36 +36 очень
жарко
1009.4 964.4
07 13.02 ЮЗ 3 н/о н/о +38.9 +0.3 9 +35 +35 очень
жарко
1008.5 963.6
09 13.02 Ю 4 н/о н/о +37.9 +1.0 10 +34 +34 очень
жарко
1007.9 963.0
10 13.02 Ю 4 н/о н/о +37.7 +0.9 10 +34 +34 очень
жарко
1007.9 963.0
12 13.02 Ю 4 н/о н/о +36.4 +1.2 11 +33 +33 жарко 1008.8 963.9
13 13.02 Ю 7 н/о н/о +35.3 -0.9 10 +32 +32 жарко 1009.4 964.4 +40.2
15 13.02 Ю 9 н/о н/о +32.8 +1.8 14 +30 +30 жарко 1009.3 964.3
16 13.02 ЮВ 9 н/о н/о +31.9 +3.0 16 +29 +29 жарко 1009.3 964.3
18 13.02 Ю 4 н/о н/о +30.4 +4.9 20 +29 +29 жарко 1008.7 963.8
19 13.02 Ю 5 н/о н/о +29.3 +5.4 22 +28 +28 жарко 1008.4 963.5
21 13.02 В 4 н/о н/о +28.7 +4.2 21 +27 +27 жарко 1008.3 963.4
22 13.02 ЮВ 3 н/о н/о +28.8 +4.3 21 +27 +27 жарко 1009.1 964.1
00 14.02 СВ 8 н/о н/о +31.2 +4.9 19 +29 +29 жарко 1008.7 963.8
01 14.02 СВ 8 н/о н/о +33.2 +4.9 17 +31 +31 жарко 1008.7 963.8 +27.5
03 14.02 СЗ 7 н/о н/о +37.4 +6.4 15 +35 +35 очень
жарко
1007.8 962.9
04 14.02 СЗ 7 н/о н/о +39.4 +3.5 11 +36 +36 очень
жарко
1007.3 962.4
06 14.02 СЗ 8 н/о н/о +41.2 +0.4 8 +37 +37 очень
жарко
1005.8 961.0
07 14.02 З 8 н/о н/о +41.9 +0.9 8 +38 +38 очень
жарко
1005.3 960.5
09 14.02 З 8 н/о н/о +41.1 +0.3 8 +37 +37 очень
жарко
1005.6 960.8
10 14.02 З 9 н/о н/о +39.3 +2.1 10 +36 +36 очень
жарко
1006.2 961.4
12 14.02 ЮЗ 6 н/о н/о +36.3 +2.4 12 +33 +33 жарко 1008.7 963.8
13 14.02 ЮЗ 7 н/о н/о +35.1 +2.6 13 +32 +32 жарко 1009.9 964.9 +42.8
15 14.02 ЮЗ 7 н/о н/о +31.1 +8.8 25 +30 +30 жарко 1010.8 965.8
16 14.02 ЮЗ 6 н/о н/о +30.0 +7.8 25 +29 +29 жарко 1011.0 966.0
18 14.02 ЮЗ 5 н/о н/о +27.4 +6.2 26 +27 +27 жарко 1010.9 965.9
19 14.02 ЮЗ 5 н/о н/о +26.5 +5.5 26 +26 +26 жарко 1011.3 966.2
21 14.02 ЮЗ 2 н/о н/о +24.7 +5.5 29 +24 +24 комфорт 1012.2 967.1
22 14.02 ЮЗ 3 н/о н/о +23.8 +5.7 31 +24 +24 комфорт 1012.7 967.6
00 15.02 ЮЗ 5 н/о н/о +26.9 +7.4 29 +27 +27 жарко 1014.0 968.8
01 15.02 ЮЗ 5 н/о н/о +29.7 +7.6 25 +29 +29 жарко 1014.2 969.0 +23.8
03 15.02 ЮЗ 5 н/о н/о +34.5 +5.9 17 +32 +32 жарко 1013.6 968.4
04 15.02 З 4 н/о н/о +35.5 +4.9 15 +33 +33 жарко 1012.8 967.7
06 15.02 З 5 н/о н/о +38.2 +2.6 11 +35 +35 очень
жарко
1011.8 966.7
07 15.02 З 6 н/о н/о +39.2 +0.6 9 +35 +35 очень
жарко
1011.1 966.1
09 15.02 ЮЗ 6 н/о н/о +38.2 -0.2 9 +34 +34 очень
жарко
1010.9 965.9
10 15.02 Ю 6 н/о н/о +37.2 -0.9 9 +33 +33 жарко 1011.4 966.3
12 15.02 ЮЗ 4 н/о н/о +34.3 -0.4 11 +31 +31 жарко 1012.9 967.8
13 15.02 ЮЗ 4 н/о н/о +32.9 -0.2 12 +30 +30 жарко 1013.5 968.3 +40.0
15 15.02 ЮЗ 9 н/о н/о +29.8 +9.3 28 +29 +29 жарко 1014.0 968.8
16 15.02 ЮЗ 5 н/о н/о +28.1 +10.3 33 +29 +29 жарко 1014.1 968.9
18 15.02 ЮЗ 5 н/о н/о +25.5 +10.1 38 +26 +26 жарко 1013.8 968.6
19 15.02 ЮЗ 4 н/о н/о +24.5 +10.0 40 +25 +25 комфорт 1013.7 968.5
21 15.02 ЮЗ 3 н/о н/о +22.3 +10.1 46 +24 +24 комфорт 1013.5 968.3
22 15.02 ЮЗ 4 н/о н/о +21.5 +10.0 48 +23 +23 комфорт 1013.7 968.5
00 16.02 Ю 4 н/о н/о +24.6 +10.1 40 +26 +26 жарко 1014.4 969.2
01 16.02 Ю 3 н/о н/о +29.0 +10.2 31 +29 +29 жарко 1014.1 968.9 +21.5
03 16.02 З 2 н/о н/о +34.2 +7.3 19 +32 +32 жарко 1013.0 967.9
04 16.02 З 5 н/о н/о +36.0 +4.3 14 +33 +33 жарко 1012.3 967.2
06 16.02 З 5 н/о н/о +38.9 +0.3 9 +35 +35 очень
жарко
1010.7 965.7
07 16.02 ЮЗ 5 н/о н/о +38.6 +0.1 9 +35 +35 очень
жарко
1009.9 964.9
09 16.02 Ю 6 н/о н/о +37.8 +1.0 10 +34 +34 очень
жарко
1009.3 964.3
10 16.02 ЮЗ 5 н/о н/о +37.4 -0.8 9 +34 +34 очень
жарко
1009.4 964.4
12 16.02 ЮЗ 4 н/о н/о +34.6 -0.1 11 +31 +31 жарко 1010.5 965.5
13 16.02 ЮЗ 4 н/о н/о +33.3 +0.1 12 +30 +30 жарко 1010.8 965.8 +39.7
15 16.02 ЮЗ 4 н/о н/о +30.6 +1.9 16 +28 +28 жарко 1010.7 965.7
16 16.02 ЮЗ 3 н/о н/о +28.7 +2.8 19 +27 +27 жарко 1010.6 965.6
18 16.02 ЮЗ 4 н/о н/о +27.1 +4.2 23 +26 +26 жарко 1009.8 964.8
19 16.02 Ю 3 н/о н/о +25.5 +4.6 26 +25 +25 комфорт 1009.9 964.9
21 16.02 ЮВ 5 н/о н/о +25.3 +9.6 37 +26 +26 жарко 1010.5 965.5
22 16.02 ЮВ 5 н/о н/о +24.9 +10.4 40 +26 +26 жарко 1011.3 966.2
00 17.02 В 6 н/о н/о +26.4 +10.5 37 +27 +27 жарко 1011.9 966.8
01 17.02 В 6 н/о н/о +28.2 +10.4 33 +29 +29 жарко 1011.9 966.8 +24.6
03 17.02 ЮВ 5 н/о н/о +31.6 +8.6 24 +31 +31 жарко 1010.6 965.6
04 17.02 В 6 н/о н/о +33.3 +8.0 21 +32 +32 жарко 1009.7 964.7
06 17.02 Ю 5 н/о н/о +35.8 +7.0 17 +34 +34 очень
жарко
1008.0 963.1
07 17.02 В 5 н/о н/о +36.7 +4.9 14 +34 +34 очень
жарко
1007.3 962.4
09 17.02 Ю 4 н/о н/о +36.8 +3.9 13 +34 +34 очень
жарко
1006.5 961.7
10 17.02 ЮВ 5 н/о н/о +36.5 +3.7 13 +33 +33 жарко 1006.5 961.7
12 17.02 ЮВ 4 н/о н/о +33.9 +4.6 16 +31 +31 жарко 1007.7 962.8
13 17.02 ЮВ 5 н/о н/о +32.6 +5.2 18 +30 +30 жарко 1008.3 963.4 +37.9
15 17.02 Ю 5 н/о н/о +31.6 +6.6 21 +30 +30 жарко 1008.7 963.8
16 17.02 ЮВ 5 н/о н/о +29.3 +6.7 24 +28 +28 жарко 1008.7 963.8
18 17.02 ЮВ 4 н/о н/о +26.9 +7.4 29 +27 +27 жарко 1008.4 963.5
19 17.02 ЮВ 3 н/о н/о +26.3 +7.8 31 +26 +26 жарко 1008.3 963.4
21 17.02 ЮВ 3 н/о н/о +24.8 +8.7 36 +25 +25 комфорт 1008.7 963.8
22 17.02 В 4 н/о н/о +24.6 +9.0 37 +25 +25 комфорт 1009.2 964.2
00 18.02 В 7 н/о н/о +27.2 +10.0 34 +28 +28 жарко 1010.0 965.0
01 18.02 В 7 н/о н/о +29.2 +10.3 31 +29 +29 жарко 1010.3 965.3 +24.7
03 18.02 В 4 н/о н/о +32.9 +9.7 24 +32 +32 жарко 1009.9 964.9
04 18.02 СВ 3 н/о н/о +35.6 +9.2 20 +34 +34 очень
жарко
1009.1 964.1
06 18.02 ЮВ 3 н/о н/о +36.9 +4.0 13 +34 +34 очень
жарко
1007.7 962.8
07 18.02 ЮВ 3 н/о н/о +38.1 +2.5 11 +35 +35 очень
жарко
1007.2 962.3
09 18.02 ЮЗ 5 н/о н/о +38.5 +1.5 10 +35 +35 очень
жарко
1006.5 961.7
10 18.02 Ю 4 н/о н/о +37.8 +2.3 11 +34 +34 очень
жарко
1006.5 961.7
12 18.02 Ю 3 н/о н/о +35.9 +3.2 13 +33 +33 жарко 1007.6 962.7
13 18.02 ЮЗ 3 н/о н/о +34.0 +3.7 15 +31 +31 жарко 1008.1 963.2 +39.6
15 18.02 В 3 н/о н/о +31.4 +5.0 19 +29 +29 жарко 1008.3 963.4
16 18.02 В 4 н/о н/о +31.1 +5.5 20 +29 +29 жарко 1008.0 963.1
18 18.02 В 4 н/о н/о +29.8 +5.8 22 +28 +28 жарко 1007.7 962.8
19 18.02 СВ 4 н/о н/о +28.9 +6.3 24 +28 +28 жарко 1007.7 962.8
21 18.02 СВ 4 н/о н/о +27.7 +5.9 25 +27 +27 жарко 1008.1 963.2
22 18.02 В 4 н/о н/о +26.8 +5.7 26 +26 +26 жарко 1008.5 963.6
00 19.02 СВ 7 н/о н/о +30.7 +5.9 21 +29 +29 жарко 1009.3 964.3
01 19.02 СВ 7 н/о н/о +32.8 +6.2 19 +31 +31 жарко 1009.3 964.3 +26.8
03 19.02 С 5 н/о н/о +37.9 +6.8 15 +35 +35 очень
жарко
1008.3 963.4
04 19.02 СЗ 5 н/о н/о +39.0 +5.6 13 +36 +36 очень
жарко
1007.5 962.6
06 19.02 З 5 н/о н/о +40.4 +2.9 10 +37 +37 очень
жарко
1005.9 961.1
07 19.02 СЗ 4 н/о н/о +40.5 +1.5 9 +37 +37 очень
жарко
1005.4 960.6

 

Местоположение метеостанции Маунт Магнет (Западная Австралия, Австралия): широта -28.11 долгота 117.83 высота над уровнем моря 408 м.

В архиве по умолчанию представлена погода в Маунт Магнет за последнюю неделю. Архивные данные за месяц целиком и за предыдущие месяцы, начиная с января 2011 года, Вы можете получить, выбрав интересующий диапазон дат из раскрывающегося списка и нажав кнопку "Ввод!".


*Определитесь, кто Вы:
робот инопланетянин человек

Внимание! Время в таблицах - всемирное. Для получения местного времени необходимо прибавить поправку, которая равна 8 ч.

Смотрите также архив погоды в соседних городах и на ближайших метеорологических станциях:

Погода в Микатарре (Западная Австралия, Австралия) (181 км)
Погода в Мораве (Западная Австралия, Австралия) (214 км)
Погода в Дауоллину (Западная Австралия, Австралия) (266 км)
Погода в Леинстере (Западная Австралия, Австралия) (283 км)
Погода в Джеральдтоне (Западная Австралия, Австралия) (316 км)
Погода в Баджингарре (Западная Австралия, Австралия) (333 км)
Погода в Леоноре (Западная Австралия, Австралия) (352 км)
Погода в Саутерн Кросс (Западная Австралия, Австралия) (377 км)
Погода в Кандердине (Западная Австралия, Австралия) (395 км)
Погода в Гингине (Западная Австралия, Австралия) (419 км)

Пояснения к столбцам:

Ветер - указаны скорость ветра в м/с - средняя за 10 мин, порывы в срок и между сроками (в фигурных скобках) и направление, откуда дует ветер: С - северный, СВ - северо-восточный, В - восточный, ЮВ - юго-восточный, Ю - южный, ЮЗ - юго-западный, З - западный, СЗ - северо-западный.
Видимость - горизонтальная дальность видимости в метрах или километрах. При видимости от 1 до 10 км при отсутствии осадков обычно наблюдается дымка, при ухудшении видимости до 1 км и менее - туман. В сухую погоду видимость может ухудшаться дымом, пылью или мглою.
Явления - указаны атмосферные явления, наблюдавшиеся в срок или в последний час перед сроком; фигурными скобками обозначены явления, наблюдавшиеся между сроками (за 1-3 часа до срока); квадратными скобками обозначены град или гололедные отложения с указанием их диаметра в мм.
Облачность - указаны через наклонную черту общая и нижняя облачность в баллах и высота нижней границы облаков в метрах; квадратными скобками обозначены формы облаков: Ci - перистые, Cs - перисто-слоистые, Cc - перисто-кучевые, Ac - высококучевые, As - высокослоистые, Sc - слоисто-кучевые, Ns - слоисто-дождевые, Cu - кучевые, Cb - кучево-дождевые. Подробнее классификацию облаков см. в Атласе облаков (PDF).
T - Температура воздуха - температура, измеренная на высоте 2 м над землей.
Td - Температура точки росы - температура, при понижении до которой содержащийся в воздухе водяной пар достигнет насыщения.
f - Относительная влажность воздуха - влажноcть воздуха, измеренная на высоте 2 м над землей.
Te - Эффективная температура - температура, которую ощущает одетый по сезону человек в тени. Характеристика душности погоды. При расчете учитывается влияние влажности воздуха и скорости ветра на теплоощущения человека.
Tes - Эффективная температура на солнце - температура, которую ощущает человек, с поправкой на солнечный нагрев. Характеристика знойности погоды. Зависит от высоты солнца над горизонтом, облачности и скорости ветра. Ночью, в пасмурную погоду, а также при ветре 12 м/с и более поправка равна нулю.
P - Атмосферное давление - приведенное к уровню моря атмосферное давление.
Po - Атмосферное давление - измеренное на уровне метеостанции атмосферное давление.
Tmin - Минимальная температура - минимум температуры воздуха на высоте 2 м над землей.
Tmax - Максимальная температура - максимум температуры воздуха на высоте 2 м над землей.
R - Количество осадков - Количество выпавших осадков за период времени, мм. При наведении курсора мыши на число - период времени, за который выпало указанное количество осадков.
R24 - Количество осадков - Количество выпавших осадков за 24 часа, мм.
S - Снежный покров - Высота снежного покрова, см. При наведении курсора мыши на число - состояние снежного покрова и степень покрытия местности в баллах.